"Pseudo-MPEC" for P22oZwv

Created 2026 Aug 14 19:35:23 UT using Find_Orb

Click here for an explanation of pseudo-MPECs

 
 Astrometry: 
     P22oZwv 0C2026 07 25.59507323 29 25.954-07 11 34.58   ~8E1Z 22.54GVNEOCPF51
     P22oZwv 0C2026 07 25.60587423 29 26.723-07 11 22.36   ~8E1Z 22.16GVNEOCPF51
     P22oZwv*0C2026 08 08.51479523 44 07.106-02 39 21.26   ~88EK 21.64wXNEOCPF52
     P22oZwv*0C2026 08 08.51606823 44 07.158-02 39 19.73   ~88EZ 21.65wXNEOCPF52
     P22oZwv 0C2026 08 08.52694223 44 07.561-02 39 06.82   ~88EK 22.06wXNEOCPF52
     P22oZwv 0C2026 08 08.52821323 44 07.619-02 39 05.00   ~88EZ 21.96wXNEOCPF52
     P22oZwv 0C2026 08 08.53908923 44 08.053-02 38 52.20   ~88EK 21.85wXNEOCPF52
     P22oZwv 0C2026 08 08.54036623 44 08.086-02 38 50.65   ~88EZ 21.85wXNEOCPF52
     P22oZwv 0C2026 08 08.55119623 44 08.520-02 38 37.59   ~88EK 22.09wXNEOCPF52
     P22oZwv 0C2026 08 08.55247523 44 08.574-02 38 36.17   ~88EZ 21.68wXNEOCPF52
     P22oZwv 0C2026 08 08.61437723 44 10.984-02 37 21.61   ~88H5 21.83GVNEOCPF52
     P22oZwv 0C2026 08 08.61518523 44 11.024-02 37 20.75   ~88H5 21.63GVNEOCPF52
     P22oZwv 1C2026 08 08.98118023 44 29.166-02 30 10.00   ~897Z 20.9 GXNEOCP033
     P22oZwv 1C2026 08 08.98495023 44 29.278-02 30 05.60   ~897Z 20.6 GXNEOCP033
     P22oZwv 1C2026 08 08.98871023 44 29.468-02 30 01.10   ~897Z 20.8 GXNEOCP033
     P22oZwv 1C2026 08 08.99247023 44 29.648-02 29 56.90   ~897Z 20.5 GXNEOCP033
     P22oZwv KC2026 08 09.31254623 44 44.07 -02 23 30.1    ~8985 21.9 GVNEOCPH21
     P22oZwv KC2026 08 09.31543523 44 44.17 -02 23 26.7    ~8985 21.8 GVNEOCPH21
     P22oZwv KC2026 08 09.31861323 44 44.31 -02 23 23.2    ~8985 21.8 GVNEOCPH21
     P22oZwv 0C2026 08 12.54463123 46 56.802-01 18 39.09   ~8CEZ 21.95wXNEOCPF52
     P22oZwv 0C2026 08 12.55620923 46 57.144-01 18 25.11   ~8CEZ 21.67wXNEOCPF52
     P22oZwv 0C2026 08 12.56778523 46 57.465-01 18 11.26   ~8CEZ 21.69wXNEOCPF52

Station data:
(033) Karl Schwarzschild Observatory, Tautenburg  (N50.980139 E11.711240)
   Germany.  Observer B. Stecklum. 1.34-m f/3 Schmidt + CCD.
(F51) Pan-STARRS 1, Haleakala  (N20.707234 W156.255910)  US/Hawaii.
   Observers J. Herman, T. Lowe, P. Minguez, A. Schultz, I. Smith. Measurers
   K. Chambers, T. de Boer, J. Fairlamb, H. Gao, M. Huber, C.-C. Lin, E.
   Magnier, Y. Ramanjooloo, R. Wainscoat, R. Weryk. 1.8-m Ritchey-Chrétien +
   CCD.
(F52) Pan-STARRS 2, Haleakala  (N20.707382 W156.255910)  US/Hawaii.
   Observers J. Herman, T. Lowe, P. Minguez, A. Schultz, I. Smith. Measurers
   K. Chambers, T. de Boer, J. Fairlamb, H. Gao, M. Huber, C.-C. Lin, E.
   Magnier, Y. Ramanjooloo, R. Wainscoat, R. Weryk. 1.8-m Ritchey-Chrétien +
   CCD.
(H21) Astronomical Research Observatory, Westfield  (N39.483054 W87.968270)
   US/Illinois.  Observer R. Holmes. Measurers S. Foglia, L. Buzzi, T.
   Linder, R. Holmes. 0.40-m f/5.32 astrograph + CCD.

Orbital elements:  P22oZwv
   Perihelion 2026 Sep 2.100190 +/- 0.0162 TT =  2:24:16.3 (JD 2461285.600190)
Epoch 2026 Aug 12.0 TT = JDT 2461264.5   Earth MOID: 0.3364   Ma: 0.0066
M 352.701997200 +/- 0.008           (J2000 ecliptic)             AutoNEOCP
n   0.345873801 +/- 0.000178        Peri.   15.225111 +/- 0.012
a   2.009976306 +/- 0.000691        Node   329.439446 +/- 0.0022
e   0.33153955 +/- 0.000174         Incl.    5.779664 +/- 0.0012
P   2.84962                H 21.70  G  0.15   U  6.9
q 1.343589648 +/- 0.000112    Q 2.676362964 +/- 0.00127
From 22 observations 2026 July 25-Aug. 12; mean residual 0".19
Residuals in arcseconds: 
260725 F51  .05-  .03+    260808 F52  .02+  .04+    260809 H21  .04+  .31-    
260725 F51  .05+  .04-    260808 F52  .09+  .07-    260809 H21  .13-  .38-    
260808 F52  .08+  .02+    260808 F52  .07-  .15+    260809 H21  .14+  .69-    
260808 F52  .12+  .02+    260808 F52  .05+  .04+    260812 F52  .09-  .00     
260808 F52  .20-  .10-    260808 033  .22+  .33+    260812 F52  .11+  .05+    
260808 F52  .08-  .20+    260808 033  .44-  .21+    260812 F52  .02-  .02-    
260808 F52  .08+  .05-    260808 033  .07+  .20+    
260808 F52  .17-  .03-    260808 033  .45+  .10-    

Ephemerides (geocentric):
Date (UTC) HH   RA             Dec           delta  r     elong  mag " sig PA
---- --------  ------------   ------------  ------ ------ -----  --- --------
2026 08 14 20  23 48 14.876   -00 32 40.40  .39308 1.3526 144.6 21.5 .165 122
2026 08 14 21  23 48 16.170   -00 31 50.37  .39294 1.3526 144.6 21.5 .167 122
2026 08 14 22  23 48 17.460   -00 31 00.35  .39281 1.3525 144.6 21.5 .169 122
2026 08 14 23  23 48 18.745   -00 30 10.32  .39268 1.3525 144.7 21.5 .171 122
2026 08 15 00  23 48 20.025   -00 29 20.30  .39254 1.3524 144.7 21.5 .173 122
2026 08 15 01  23 48 21.301   -00 28 30.28  .39241 1.3524 144.7 21.5 .175 122
2026 08 15 02  23 48 22.572   -00 27 40.27  .39228 1.3524 144.8 21.5 .177 122
2026 08 15 03  23 48 23.839   -00 26 50.25  .39214 1.3523 144.8 21.5 .179 122
2026 08 15 04  23 48 25.102   -00 26 00.24  .39201 1.3523 144.8 21.5 .182 122
2026 08 15 05  23 48 26.359   -00 25 10.23  .39188 1.3522 144.9 21.5 .184 122
2026 08 15 06  23 48 27.613   -00 24 20.22  .39175 1.3522 144.9 21.5 .186 122
2026 08 15 07  23 48 28.862   -00 23 30.22  .39161 1.3522 144.9 21.5 .188 122
2026 08 15 08  23 48 30.106   -00 22 40.22  .39148 1.3521 144.9 21.5 .190 122
2026 08 15 09  23 48 31.346   -00 21 50.22  .39135 1.3521 145.0 21.5 .192 122
2026 08 15 10  23 48 32.581   -00 21 00.23  .39122 1.3520 145.0 21.5 .194 122
2026 08 15 11  23 48 33.812   -00 20 10.23  .39109 1.3520 145.0 21.5 .197 122
2026 08 15 12  23 48 35.039   -00 19 20.24  .39096 1.3520 145.1 21.5 .199 122
2026 08 15 13  23 48 36.261   -00 18 30.26  .39082 1.3519 145.1 21.5 .201 122
2026 08 15 14  23 48 37.478   -00 17 40.27  .39069 1.3519 145.1 21.5 .203 122
2026 08 15 15  23 48 38.691   -00 16 50.29  .39056 1.3518 145.1 21.5 .205 122
2026 08 15 16  23 48 39.899   -00 16 00.32  .39043 1.3518 145.2 21.5 .208 122
2026 08 15 17  23 48 41.103   -00 15 10.34  .39030 1.3518 145.2 21.5 .210 122
2026 08 15 18  23 48 42.303   -00 14 20.37  .39017 1.3517 145.2 21.5 .212 122
2026 08 15 19  23 48 43.497   -00 13 30.40  .39004 1.3517 145.3 21.5 .214 122
2026 08 15 20  23 48 44.688   -00 12 40.44  .38991 1.3516 145.3 21.5 .217 122
2026 08 15 21  23 48 45.874   -00 11 50.47  .38978 1.3516 145.3 21.5 .219 122
2026 08 15 22  23 48 47.055   -00 11 00.52  .38965 1.3516 145.4 21.5 .221 122
2026 08 15 23  23 48 48.232   -00 10 10.56  .38952 1.3515 145.4 21.5 .223 122
2026 08 16 00  23 48 49.405   -00 09 20.61  .38939 1.3515 145.4 21.5 .226 122
2026 08 16 01  23 48 50.572   -00 08 30.66  .38927 1.3515 145.4 21.5 .228 122
2026 08 16 02  23 48 51.736   -00 07 40.72  .38914 1.3514 145.5 21.5 .230 122
2026 08 16 03  23 48 52.895   -00 06 50.77  .38901 1.3514 145.5 21.5 .233 122
2026 08 16 04  23 48 54.049   -00 06 00.84  .38888 1.3513 145.5 21.5 .235 122
2026 08 16 05  23 48 55.199   -00 05 10.90  .38875 1.3513 145.6 21.5 .237 122
2026 08 16 06  23 48 56.345   -00 04 20.97  .38862 1.3513 145.6 21.5 .240 122
2026 08 16 07  23 48 57.486   -00 03 31.04  .38850 1.3512 145.6 21.5 .242 122
2026 08 16 08  23 48 58.622   -00 02 41.12  .38837 1.3512 145.7 21.5 .244 122
2026 08 16 09  23 48 59.754   -00 01 51.20  .38824 1.3511 145.7 21.5 .247 122
2026 08 16 10  23 49 00.882   -00 01 01.28  .38812 1.3511 145.7 21.5 .249 122
2026 08 16 11  23 49 02.005   -00 00 11.37  .38799 1.3511 145.7 21.5 .251 122
2026 08 16 12  23 49 03.123   +00 00 38.54  .38786 1.3510 145.8 21.5 .254 122
2026 08 16 13  23 49 04.237   +00 01 28.44  .38773 1.3510 145.8 21.5 .256 122
2026 08 16 14  23 49 05.347   +00 02 18.34  .38761 1.3510 145.8 21.4 .259 122
2026 08 16 15  23 49 06.452   +00 03 08.24  .38748 1.3509 145.9 21.4 .261 122
2026 08 16 16  23 49 07.552   +00 03 58.13  .38736 1.3509 145.9 21.4 .263 122
2026 08 16 17  23 49 08.648   +00 04 48.02  .38723 1.3509 145.9 21.4 .266 122
2026 08 16 18  23 49 09.740   +00 05 37.90  .38710 1.3508 146.0 21.4 .268 122
2026 08 16 19  23 49 10.827   +00 06 27.78  .38698 1.3508 146.0 21.4 .271 121